This is the latest recevied weather packets stored in our database for station/object W4GAP. If no packets are shown the sender has not sent any weather packets the latest 10 day(s).
| Time | Temp. | Humidity | Pressure | Rain* | Wind** | Luminosity | Snow |
|---|---|---|---|---|---|---|---|
| 1778105555 | 25° C | 70% | 1009.3 hPa | 0 mm | - | 15 W/m² | - |
| 1778105252 | 25.56° C | 70% | 1009.3 hPa | 0 mm | - | 17 W/m² | - |
| 1778104946 | 25.56° C | 70% | 1009.4 hPa | 0 mm | - | 19 W/m² | - |
| 1778104643 | 25.56° C | 70% | 1009.7 hPa | 0 mm | - | 21 W/m² | - |
| 1778104339 | 25.56° C | 69% | 1009.3 hPa | 0 mm | - | 39 W/m² | - |
| 1778104036 | 25.56° C | 69% | 1009.3 hPa | 0 mm | - | 46 W/m² | - |
| 1778103733 | 25.56° C | 69% | 1009.5 hPa | 0 mm | - | 47 W/m² | - |
| 1778103431 | 25.56° C | 69% | 1009.2 hPa | 0 mm | - | 48 W/m² | - |
| 1778103128 | 25.56° C | 69% | 1009 hPa | 0 mm | - | 35 W/m² | - |
| 1778102825 | 25.56° C | 69% | 1009.3 hPa | 0 mm | - | 47 W/m² | - |
| 1778102521 | 25.56° C | 68% | 1009.2 hPa | 0 mm | - | 62 W/m² | - |
| 1778102216 | 25.56° C | 69% | 1009.5 hPa | 0 mm | - | 49 W/m² | - |
| 1778101913 | 25.56° C | 68% | 1009.2 hPa | 0 mm | - | 48 W/m² | - |
| 1778101610 | 25.56° C | 69% | 1009.2 hPa | 0 mm | - | 50 W/m² | - |
| 1778101306 | 25.56° C | 69% | 1009.6 hPa | 0 mm | - | 30 W/m² | - |
| 1778101004 | 25.56° C | 68% | 1009.5 hPa | 0 mm | - | 30 W/m² | - |
| 1778100698 | 25.56° C | 67% | 1009.5 hPa | 0 mm | - | 25 W/m² | - |
| 1778100397 | 25.56° C | 66% | 1009.6 hPa | 0 mm | - | 26 W/m² | - |
| 1778100093 | 25.56° C | 67% | 1009.8 hPa | 0 mm | - | 24 W/m² | - |
| 1778099792 | 26.11° C | 66% | 1009.8 hPa | 0 mm | - | 24 W/m² | - |
| 1778099488 | 26.11° C | 66% | 1009.6 hPa | 0 mm | - | 48 W/m² | - |
| 1778099186 | 26.11° C | 67% | 1009.7 hPa | 0 mm | - | 79 W/m² | - |
| 1778098882 | 26.11° C | 66% | 1010 hPa | 0 mm | - | 43 W/m² | - |
| 1778098579 | 26.11° C | 66% | 1009.9 hPa | 0 mm | - | 28 W/m² | - |
| 1778098275 | 26.11° C | 66% | 1009.8 hPa | 0 mm | - | 38 W/m² | - |
* Rain latest hour (hover to see other rain measurements)
** Current wind speed in m/s (hover to see current wind gust speed)